STARLINK-4707, 53721

Orbit data source: Space-Track

STARLINK-4707, 53721 is a payload satellite owned by SpaceX/Seattle (US) in LEO that was launched on Mon, 05 Sep 2022 UTC via an FALCON 9 launch vehicle from the Air Force Eastern Test Range (AFETR). Payload-class satellites include a variety of spacecraft equipped with specific instruments for various scientific and technological missions. These include communications satellites like Starlink; space stations such as the ISS; scientific satellites like the Hubble; Earth observation satellites from companies like Planet Labs, Umbra, and HawkEye 360; GPS; miniature CubeSats for education and research; and military/defense satellites.

Loading next visibility...
Identifier
53721, 2022-107X
Orbit
LEO
Country
Flag of USUS
Related business
Manufacturer
SpaceX/Seattle
Mission
Operational Commercial Communications
Bus & Motor
STARLINK, Unknown motor
Mass
305 kg wet, ~290 kg dry
Launch date (UTC)
2022-09-05 (4 years ago)
Launch vehicle
FALCON 9
Launch site
Air Force Eastern Test Range (AFETR)
Object type
Payload
Rocket body
Debris
Shape & HBR
Box + 1 Pan, 10.1 m
Radar Cross Section
13.562 m², Large (>1 m²)

Expand to show TLE details & history
Last TLE update: 2 days ago

TLE from 2 days ago
0 STARLINK-4707
1 53721U 22107X   26171.21427585  .00000030  00000-0  19980-4 0  9995
2 53721  53.1596 153.5924 0001289  87.6516 272.4623 15.08834365209898
Epoch: 2026-06-20T05:08Z
TLE epoch observation values (Epoch: 2026-06-20T05:08:33.433Z)
Latitude
-0.00002°
Longitude
168.02097°
Altitude
540.614 km
Speed
7.593 km/s
True Right ascension
10h 14m 22s
True Declination
0° 00' 00"
Sunlit
Object was in daylight at epoch
Visualization orbit readout
Latitude
Unknown
Longitude
Unknown
Altitude
Unknown
Speed
Unknown
Apparent Right ascension
Unknown
Apparent Declination
Unknown
Sunlit
N/A
Visualization observer readout
Local Sidereal Time
21:32:19
Azimuth
Unknown
Elevation
Unknown
Doppler factor
Unknown
Orbital elements
Apogee altitude
540.907 km
Perigee altitude
539.123 km
Semi-major axis
6,918.152 km
Eccentricity
0.00013
Inclination
53.1596°
RAAN
153.5924°
Arg. of periapsis
87.6516°
True anomaly
272.44754°
Mean anomaly
272.4623°
Eccentric anomaly
272.45492°
Mean motion
3.77188 °/min
Orbital period
95.44 mins
BSTAR
0.00001998
Loading maneuver chart data...
Computing Atmospheric mass density...
Loading historical data...
Loading historical data...
Loading historical data...
Loading historical data...
Loading historical data...
Loading historical data...
Loading historical data...

Documentation

Showing up to 5 results
|